Weather in Novaya Gabselga

Russia / Republic of Karelia     62°48′18″N   35°05′10″E
temp.,
°C
wind,
m/s
gust,
m/s
humid.,
%
clouds,
%
prec.,
mm/h
press.,
hPa
HPBL,
m
24 july, sat
sat2400:00+11nw6106014 0.0 1009407
03:00+10nnw586265 0.0 1011314
06:00+11w4664100 0.0 1011277
09:00+13wnw5655100 0.0 1011927
12:00+15nw5748100 0.0 10111628
15:00+16w4654100 0.0 1012657
18:00+15wnw4757100 0.0 1013609
21:00+15w3560100 0.0 1013124
25 july, sun
sun2500:00+14wnw3564100 0.0 1014156
03:00+14w2362100 0.0 1014113
06:00+15wsw236237 0.0 1015160
09:00+16sw23595 0.0 1015318
12:00+17ssw235476 0.0 1015490
15:00+19ssw235241 0.0 1015518
18:00+19nne2357100 0.0 1015117
21:00+15ne457593 0.1 101674
26 july, mon
mon2600:00+14nnw22795 0.1 101824
03:00+14w11815 0.1 101818
06:00+14sw2380100 0.0 1018126
09:00+17w34745 0.0 1018169
12:00+20nw36595 0.0 1019541
15:00+22nw475127 0.0 1019763
18:00+22nne575222 0.0 1019209
21:00+19sw116836 0.1 101911
27 july, tue
tue2700:00+16ne228087 0.2 102014
03:00+16ese117996 0.2 102112
06:00+15e11795 0.0 102127
09:00+17sse22715 0.0 1020173
12:00+17s117015 0.0 1020305
15:00+20s1168100 0.6 1018187
18:00+20sse447268 1.3 1016153
21:00+18sw338248 2.1 101532
28 july, wed
wed2800:00+17ese2287100 0.1 101415
03:00+17sw34804 0.1 101243
06:00+16wsw357813 0.0 101180
09:00+19wsw356694 0.0 1009118
12:00+23wsw57528 0.0 1007653
15:00+24wsw364563 0.0 1005587
18:00+23wsw695382 0.0 1004154
21:00+18w468527 0.8 1004118